Terug naar catalogus

RAPTOR3

ActiefMilitairLEO
NORAD 58958·PAYLOAD·🇺🇸 United States

Gelanceerd Feb 14, 2024 vanaf Cape Canaveral Space Force Station

Loading…

Volgende Passages (komende 24 uur)

TLE

VersSource: Space-Track

Epoch: Sep 14, 2026, 14:25 UTC

1 58958U 24028D   26257.60085865 -.00000055  00000-0  25926-4 0  9990
2 58958  39.9929 352.5558 0010320  47.8645 312.2977 13.70489098129339

Volg RAPTOR3 in realtime met AllMySat

Download on the App Store